#timestamp,LO_Frequency,Hit,StdDev 
1550707215.3,286047002.7,N
1550707235.1,286047001.6,N
1550707255.9,286046998.6,N
1550707275.7,286047000.5,N
1550707295.5,286046998.4,N
1550707315.4,286046999.3,N
1550707335.2,286046999.1,N
1550707355.1,286046998.5,N
1550707356.0,286046998.5,N
1550707375.8,286046998.8,N
1550707395.6,286047000.2,N
1550707415.5,286047000.6,N
1550707435.3,286047000.1,N
1550707455.1,286046998.8,N
1550707475.9,286047000.5,N
1550707495.7,286047000.4,N
1550707515.6,286047001.3,N
1550707535.4,286047002.0,N
1550707555.2,286047004.0,N
1550707575.1,286047002.7,N
1550707576.0,286047002.7,N
1550707595.8,286047000.0,N
1550707615.6,286047000.1,N
1550707635.5,286047001.7,N
1550707655.3,286047001.4,N
1550707675.2,286047001.7,N
1550707695.9,286047002.2,N
1550707715.7,286047002.1,N
1550707735.6,286047000.7,N
1550707755.4,286046999.7,N
1550707775.3,286047002.8,N
1550707795.1,286047000.6,N
1550707796.0,286047000.6,N
1550707815.8,286047002.1,N
1550707835.7,286046999.7,N
1550707855.5,286047001.8,N
1550707875.3,286047003.9,N
1550707895.2,286047002.5,N
1550707915.0,286046999.9,N
1550707915.9,286046999.9,N
1550707935.8,286047000.4,N
1550707955.6,286046998.4,N
1550707975.4,286047000.6,N
1550707995.3,286046996.6,N
1550708015.1,286046999.0,N
1550708035.9,286047002.2,N
1550708055.7,286047002.7,N
1550708075.5,286046999.1,N
1550708095.4,286047000.8,N
1550708115.2,286047000.7,N
1550708135.0,286047001.7,N
1550708135.9,286047001.7,N
1550708155.8,286047002.1,N
1550708175.6,286047000.1,N
1550708195.5,286047002.1,N
1550708215.3,286047005.5,Y
1550708235.1,286047004.1,P
1550708255.9,286047005.8,P
1550708275.7,286047005.5,N
1550708295.6,286047004.1,N
1550708315.4,286047005.5,Y
1550708335.2,286047002.5,P
1550708355.1,286046999.7,N
1550708356.0,286046999.7,N
1550708375.8,286047002.1,N
1550708395.6,286047004.1,N
1550708415.5,286047002.1,N
1550708435.3,286047003.7,N
1550708455.2,286047006.0,Y
1550708475.9,286047002.8,P
1550708495.7,286047002.8,P
1550708515.6,286047004.3,P
1550708535.4,286047002.9,Y
1550708555.3,286047000.8,P
1550708575.1,286046998.4,N
1550708576.0,286046998.4,N
1550708595.8,286047001.9,N
1550708615.7,286047000.1,N
1550708635.5,286046999.6,N
1550708655.3,286046996.5,N
1550708675.2,286046997.4,N
1550708695.0,286046994.0,Y
1550708695.9,286046994.0,P
1550708715.8,286046995.9,N
1550708735.6,286046996.4,N
1550708755.4,286046996.3,N
1550708775.3,286046993.6,Y
1550708795.1,286046998.3,P
1550708815.9,286046998.7,N
1550708835.7,286047001.2,N
1550708855.5,286047000.5,N
1550708875.4,286046997.4,N
1550708895.2,286046996.5,N
1550708915.0,286046999.1,N
1550708916.0,286046999.1,N
1550708935.8,286046998.2,N
1550708955.6,286047001.2,N
1550708975.5,286046997.3,N
1550708995.3,286046995.9,N
1550709015.1,286046994.1,Y
1550709035.9,286046998.0,P
1550709055.7,286046999.3,P
1550709075.6,286046995.0,P
1550709095.4,286046994.5,Y
1550709115.2,286047002.2,P
1550709135.1,286047002.2,N
1550709136.0,286047002.2,N
1550709155.8,286047003.7,N
1550709175.7,286047002.2,N
1550709195.5,286047001.8,N
1550709215.3,286047004.0,N
1550709235.2,286046999.7,N
1550709255.9,286046999.7,N
1550709275.7,286047002.7,N
1550709295.6,286047002.6,N
1550709315.4,286047002.1,N
1550709335.3,286047002.5,N
1550709355.1,286046998.6,N
1550709356.0,286046998.6,N
1550709375.8,286047000.2,N
1550709395.7,286047003.3,N
1550709415.5,286047003.1,N
1550709435.3,286047001.3,N
1550709455.2,286047003.4,N
1550709475.0,286047004.1,N
1550709475.9,286047004.1,N
1550709495.8,286047001.5,N
1550709515.6,286047000.7,N
1550709535.4,286047002.6,N
1550709555.3,286047000.1,N
1550709575.1,286046999.0,N
1550709595.8,286046996.9,N
1550709615.7,286046999.6,N
1550709635.5,286046997.8,N
1550709655.4,286046998.9,N
1550709675.2,286047000.6,N
1550709695.0,286046998.5,N
1550709695.9,286046998.5,N
1550709715.8,286046996.7,N
1550709735.6,286046998.9,N
1550709755.4,286047002.8,N
1550709775.3,286047000.2,N
1550709795.1,286047000.2,N
1550709815.9,286047002.1,N
1550709835.7,286046999.7,N
1550709855.5,286047000.6,N
1550709875.4,286046998.6,N
1550709895.2,286047002.4,N
1550709915.1,286047000.2,N
1550709916.0,286047000.2,N
1550709935.8,286047001.4,N
1550709955.6,286047002.3,N
1550709975.5,286047004.2,N
1550709995.3,286047000.4,N
1550710015.1,286046998.1,N
1550710035.9,286046996.8,N
1550710055.7,286046996.5,N
1550710075.6,286047001.2,N
1550710095.4,286047001.1,N
1550710115.2,286046999.4,N
1550710135.1,286046999.6,N
1550710136.0,286046999.6,N
1550710155.8,286046999.0,N
1550710175.6,286046998.8,N
1550710195.5,286046996.8,N
1550710215.3,286046995.1,N
1550710235.2,286046995.4,N
1550710255.9,286046997.6,N
1550710275.7,286046997.2,N
1550710295.6,286046995.1,N
1550710315.4,286046996.8,N
1550710335.3,286046995.5,N
1550710355.1,286046997.6,N
1550710356.0,286046997.6,N
1550710375.8,286046997.9,N
1550710395.7,286046995.0,N
1550710415.5,286046996.9,N
1550710435.3,286046998.1,N
1550710455.2,286046999.3,N
1550710475.0,286046997.1,N
1550710475.9,286046997.1,N
1550710495.8,286046995.3,N
1550710515.6,286046998.0,N
1550710535.4,286046995.4,N
1550710555.3,286046999.0,N
1550710575.1,286046999.3,N
1550710595.9,286047000.6,N
1550710615.7,286047002.6,N
1550710635.5,286047000.4,N
1550710655.4,286046998.3,N
1550710675.2,286047000.5,N
1550710695.0,286047002.4,N
1550710695.9,286047002.4,N
1550710715.8,286047000.6,N
1550710735.6,286047000.5,N
1550710755.5,286046996.9,N
1550710775.3,286046997.8,N
1550710795.1,286046997.3,N
